Location: Unspecified
(44.0704°N, 88.6889°W)
Time: 11:25:53
(UTC+02:00)

Vanguard 2 Rocket - Pass Details

Date: 07 August 2020
Orbit: 554 x 3326 km, 32.9° (Epoch: 22 September)

Event Time Altitude Azimuth Distance (km) Brightness Sun altitude
Rises 04:44:53 0° 257° (WSW) 4,504 11.0 -14.9°
Reaches altitude 10° 04:47:29 10° 252° (WSW) 3,824 10.5 -15.3°
Maximum altitude 04:57:44 52° 180° (S) 2,736 9.0 -16.6°
Enters shadow 05:10:50 18° 116° (ESE) 5,184 10.2 -18.3°
